ARCTICSAT 1 (RS74S)

Last updated on Mon Dec 16 2024 00:03:03 GMT+0000 (Coordinated Universal Time)

1 61764U 24199AF 24350.38028580 .00025553 00000+0 98066-3 0 9998 2 61764 97.3789 214.6564 0012960 93.5078 266.7643 15.26377726 50002
UTC large
Height (km)
Speed (km/s)
/
Latitude / Longitude
Inclination (degrees)
Orbital Period (minutes)
Azimuth
Elevation
Range (km)
Doppler Factor

Next 0 passes for location: London (51.5072 / 0.1276)

Sorry there are no passes over London.